Time,TemperatureF,DewpointF,PressureIn,WindDirection,WindDirectionDegrees,WindSpeedMPH,WindSpeedGustMPH,Humidity,HourlyPrecipIn,Conditions,Clouds,dailyrainin,SoftwareType,DateUTC
2013-08-20 00:12:00,72.0,67.0,29.84,NW,306,0.0,2.0,83,0.00,,,0.00,,2013-08-20 05:12:00,
2013-08-20 00:22:00,73.0,67.0,29.84,SSW,192,2.0,6.0,81,0.00,,,0.00,,2013-08-20 05:22:00,
2013-08-20 00:42:00,73.0,67.0,29.84,SSE,163,0.0,3.0,81,0.00,,,0.00,,2013-08-20 05:42:00,
2013-08-20 00:52:00,73.0,67.0,29.84,SW,222,0.0,3.0,81,0.00,,,0.00,,2013-08-20 05:52:00,
2013-08-20 01:11:00,73.0,67.0,29.84,West,262,0.0,2.0,81,0.00,,,0.00,,2013-08-20 06:11:00,
2013-08-20 01:21:00,72.0,67.0,29.84,SE,139,0.0,2.0,83,0.00,,,0.00,,2013-08-20 06:21:00,
2013-08-20 01:42:00,72.0,67.0,29.83,South,186,0.0,3.0,83,0.00,,,0.00,,2013-08-20 06:42:00,
2013-08-20 01:52:00,72.0,67.0,29.84,South,173,0.0,2.0,84,0.00,,,0.00,,2013-08-20 06:52:00,
2013-08-20 02:11:00,71.0,66.0,29.83,South,173,0.0,1.0,85,0.00,,,0.00,,2013-08-20 07:11:00,
2013-08-20 02:22:00,71.0,67.0,29.83,South,173,0.0,0.0,86,0.00,,,0.00,,2013-08-20 07:22:00,
2013-08-20 02:52:00,70.0,66.0,29.83,South,173,0.0,0.0,88,0.00,,,0.00,,2013-08-20 07:52:00,
2013-08-20 03:11:00,70.0,67.0,29.83,South,173,0.0,1.0,89,0.00,,,0.00,,2013-08-20 08:11:00,
2013-08-20 03:21:00,70.0,67.0,29.83,South,173,0.0,1.0,89,0.00,,,0.00,,2013-08-20 08:21:00,
2013-08-20 03:52:00,70.0,67.0,29.83,South,184,0.0,1.0,89,0.00,,,0.00,,2013-08-20 08:52:00,
2013-08-20 04:11:00,70.0,66.0,29.83,South,182,0.0,4.0,88,0.00,,,0.00,,2013-08-20 09:11:00,
2013-08-20 04:21:00,70.0,66.0,29.83,South,180,0.0,4.0,88,0.00,,,0.00,,2013-08-20 09:21:00,
2013-08-20 04:42:00,70.0,66.0,29.83,South,181,0.0,3.0,87,0.00,,,0.00,,2013-08-20 09:42:00,
2013-08-20 04:53:00,70.0,67.0,29.83,South,181,0.0,1.0,89,0.00,,,0.00,,2013-08-20 09:53:00,
2013-08-20 05:12:00,69.0,66.0,29.83,South,171,0.0,2.0,89,0.00,,,0.00,,2013-08-20 10:12:00,
2013-08-20 05:22:00,69.0,66.0,29.83,South,173,0.0,3.0,89,0.00,,,0.00,,2013-08-20 10:22:00,
2013-08-20 05:42:00,70.0,66.0,29.83,SSW,198,0.0,3.0,88,0.00,,,0.00,,2013-08-20 10:42:00,
2013-08-20 05:52:00,70.0,66.0,29.84,South,172,1.0,5.0,88,0.00,,,0.00,,2013-08-20 10:52:00,
2013-08-20 06:11:00,70.0,66.0,29.84,South,178,0.0,2.0,88,0.00,,,0.00,,2013-08-20 11:11:00,
2013-08-20 06:22:00,69.0,66.0,29.85,South,178,0.0,2.0,89,0.00,,,0.00,,2013-08-20 11:22:00,
2013-08-20 06:42:00,69.0,66.0,29.84,South,179,0.0,2.0,89,0.00,,,0.00,,2013-08-20 11:42:00,
2013-08-20 06:52:00,69.0,66.0,29.85,South,172,0.0,1.0,90,0.00,,,0.00,,2013-08-20 11:52:00,
2013-08-20 07:12:00,69.0,66.0,29.85,South,177,0.0,1.0,90,0.00,,,0.00,,2013-08-20 12:12:00,
2013-08-20 07:21:00,69.0,66.0,29.85,South,179,0.0,3.0,89,0.00,,,0.00,,2013-08-20 12:21:00,
2013-08-20 07:42:00,69.0,66.0,29.85,WSW,246,0.0,3.0,89,0.00,,,0.00,,2013-08-20 12:42:00,
2013-08-20 07:52:00,70.0,66.0,29.86,WSW,246,0.0,2.0,88,0.00,,,0.00,,2013-08-20 12:52:00,
2013-08-20 08:11:00,71.0,67.0,29.86,West,270,0.0,3.0,86,0.00,,,0.00,,2013-08-20 13:11:00,
2013-08-20 08:21:00,72.0,67.0,29.86,South,184,1.0,5.0,85,0.00,,,0.00,,2013-08-20 13:21:00,
2013-08-20 08:52:00,74.0,68.0,29.86,SSW,210,1.0,5.0,81,0.00,,,0.00,,2013-08-20 13:52:00,
2013-08-20 09:11:00,74.0,68.0,29.85,SSE,153,1.0,5.0,81,0.00,,,0.00,,2013-08-20 14:11:00,
2013-08-20 09:21:00,75.0,68.0,29.85,South,173,2.0,10.0,80,0.00,,,0.00,,2013-08-20 14:21:00,
2013-08-20 09:52:00,77.0,69.0,29.85,South,181,1.0,5.0,77,0.00,,,0.00,,2013-08-20 14:52:00,
2013-08-20 10:11:00,78.0,71.0,29.85,NNW,327,0.0,7.0,78,0.00,,,0.00,,2013-08-20 15:11:00,
2013-08-20 10:22:00,78.0,70.0,29.84,SSW,197,2.0,7.0,76,0.00,,,0.00,,2013-08-20 15:22:00,
2013-08-20 10:43:00,79.0,70.0,29.84,South,172,2.0,6.0,75,0.00,,,0.00,,2013-08-20 15:43:00,
2013-08-20 10:53:00,80.0,71.0,29.84,South,186,1.0,5.0,74,0.00,,,0.00,,2013-08-20 15:53:00,
2013-08-20 11:15:00,81.0,72.0,29.83,South,178,2.0,7.0,74,0.00,,,0.00,,2013-08-20 16:15:00,
2013-08-20 11:30:00,-999.0,-99.9,29.83,WSW,252,2.0,8.0,73,0.00,,,0.00,,2013-08-20 16:30:00,
2013-08-20 11:42:00,82.0,72.0,29.83,SSW,195,1.0,6.0,71,0.00,,,0.00,,2013-08-20 16:42:00,
2013-08-20 11:53:00,83.0,72.0,29.83,SSW,202,2.0,8.0,70,0.00,,,0.00,,2013-08-20 16:53:00,
2013-08-20 12:12:00,84.0,73.0,29.83,South,176,1.0,7.0,69,0.00,,,0.00,,2013-08-20 17:12:00,
2013-08-20 12:24:00,84.0,73.0,29.82,West,267,2.0,9.0,69,0.00,,,0.00,,2013-08-20 17:24:00,
2013-08-20 12:43:00,85.0,73.0,29.82,WNW,301,1.0,9.0,68,0.00,,,0.00,,2013-08-20 17:43:00,
2013-08-20 12:52:00,85.0,72.0,29.81,SE,138,3.0,9.0,66,0.00,,,0.00,,2013-08-20 17:52:00,
2013-08-20 13:12:00,86.0,73.0,29.80,East,96,1.0,8.0,65,0.00,,,0.00,,2013-08-20 18:12:00,
2013-08-20 13:22:00,87.0,74.0,29.80,WSW,249,2.0,8.0,66,0.00,,,0.00,,2013-08-20 18:22:00,
2013-08-20 13:52:00,87.0,73.0,29.79,WSW,251,2.0,8.0,64,0.00,,,0.00,,2013-08-20 18:52:00,
2013-08-20 14:11:00,87.0,73.0,29.79,South,178,3.0,11.0,63,0.00,,,0.00,,2013-08-20 19:11:00,
2013-08-20 14:21:00,88.0,73.0,29.79,South,187,2.0,10.0,62,0.00,,,0.00,,2013-08-20 19:21:00,
2013-08-20 14:42:00,88.0,74.0,29.78,SSW,213,2.0,9.0,64,0.00,,,0.00,,2013-08-20 19:42:00,
2013-08-20 14:53:00,88.0,73.0,29.78,East,79,2.0,9.0,61,0.00,,,0.00,,2013-08-20 19:53:00,
2013-08-20 15:12:00,89.0,74.0,29.78,WSW,239,3.0,9.0,62,0.00,,,0.00,,2013-08-20 20:12:00,
2013-08-20 15:22:00,89.0,74.0,29.77,South,183,2.0,8.0,61,0.00,,,0.00,,2013-08-20 20:22:00,
2013-08-20 15:42:00,89.0,73.0,29.77,NNW,347,3.0,8.0,60,0.00,,,0.00,,2013-08-20 20:42:00,
2013-08-20 15:52:00,88.0,73.0,29.77,SSW,202,3.0,9.0,61,0.00,,,0.00,,2013-08-20 20:52:00,
2013-08-20 16:11:00,89.0,73.0,29.77,SSE,166,3.0,8.0,60,0.00,,,0.00,,2013-08-20 21:11:00,
2013-08-20 16:22:00,89.0,73.0,29.76,WSW,258,2.0,7.0,59,0.00,,,0.00,,2013-08-20 21:22:00,
2013-08-20 16:44:00,89.0,74.0,29.76,SW,234,1.0,8.0,61,0.00,,,0.00,,2013-08-20 21:44:00,
2013-08-20 16:55:00,89.0,73.0,29.75,SW,217,2.0,11.0,59,0.00,,,0.00,,2013-08-20 21:55:00,
2013-08-20 17:14:00,89.0,73.0,29.75,SW,223,1.0,7.0,60,0.00,,,0.00,,2013-08-20 22:14:00,
2013-08-20 17:24:00,89.0,74.0,29.75,NW,323,2.0,9.0,61,0.00,,,0.00,,2013-08-20 22:24:00,
2013-08-20 17:42:00,89.0,73.0,29.75,South,182,2.0,6.0,60,0.00,,,0.00,,2013-08-20 22:42:00,
2013-08-20 17:53:00,89.0,73.0,29.75,SSE,160,1.0,8.0,60,0.00,,,0.00,,2013-08-20 22:53:00,
2013-08-20 18:12:00,88.0,72.0,29.75,WSW,237,1.0,6.0,60,0.00,,,0.00,,2013-08-20 23:12:00,
2013-08-20 18:22:00,88.0,72.0,29.75,SW,215,1.0,6.0,60,0.00,,,0.00,,2013-08-20 23:22:00,
2013-08-20 18:42:00,88.0,72.0,29.75,South,171,1.0,6.0,60,0.00,,,0.00,,2013-08-20 23:42:00,
2013-08-20 18:53:00,87.0,72.0,29.75,SE,136,1.0,4.0,61,0.00,,,0.00,,2013-08-20 23:53:00,
2013-08-20 19:12:00,87.0,73.0,29.75,South,180,1.0,5.0,63,0.00,,,0.00,,2013-08-21 00:12:00,
2013-08-20 19:22:00,86.0,73.0,29.74,South,178,0.0,3.0,66,0.00,,,0.00,,2013-08-21 00:22:00,
2013-08-20 19:42:00,85.0,72.0,29.74,South,180,1.0,4.0,66,0.00,,,0.00,,2013-08-21 00:42:00,
2013-08-20 19:52:00,85.0,73.0,29.75,SE,128,1.0,6.0,67,0.00,,,0.00,,2013-08-21 00:52:00,
2013-08-20 20:11:00,84.0,72.0,29.75,South,170,0.0,5.0,68,0.00,,,0.00,,2013-08-21 01:11:00,
2013-08-20 20:22:00,83.0,72.0,29.75,South,176,1.0,5.0,70,0.00,,,0.00,,2013-08-21 01:22:00,
2013-08-20 20:42:00,83.0,73.0,29.75,South,182,1.0,5.0,71,0.00,,,0.00,,2013-08-21 01:42:00,
2013-08-20 20:52:00,82.0,72.0,29.76,South,186,0.0,7.0,71,0.00,,,0.00,,2013-08-21 01:52:00,
2013-08-20 21:12:00,82.0,72.0,29.76,South,173,1.0,6.0,72,0.00,,,0.00,,2013-08-21 02:12:00,
2013-08-20 21:22:00,81.0,72.0,29.77,WNW,290,1.0,3.0,73,0.00,,,0.00,,2013-08-21 02:22:00,
2013-08-20 21:42:00,81.0,72.0,29.77,South,180,1.0,6.0,75,0.00,,,0.00,,2013-08-21 02:42:00,
2013-08-20 21:52:00,80.0,72.0,29.77,South,186,0.0,5.0,76,0.00,,,0.00,,2013-08-21 02:52:00,
2013-08-20 22:12:00,79.0,71.0,29.78,SSE,163,1.0,5.0,77,0.00,,,0.00,,2013-08-21 03:12:00,
2013-08-20 22:23:00,79.0,72.0,29.78,South,187,0.0,3.0,79,0.00,,,0.00,,2013-08-21 03:23:00,
2013-08-20 22:44:00,78.0,71.0,29.78,South,190,1.0,4.0,80,0.00,,,0.00,,2013-08-21 03:44:00,
2013-08-20 22:55:00,78.0,72.0,29.78,South,185,1.0,3.0,81,0.00,,,0.00,,2013-08-21 03:55:00,
2013-08-20 23:14:00,77.0,71.0,29.77,SW,219,0.0,3.0,82,0.00,,,0.00,,2013-08-21 04:14:00,
2013-08-20 23:24:00,77.0,71.0,29.77,SW,219,0.0,3.0,82,0.00,,,0.00,,2013-08-21 04:24:00,
2013-08-20 23:44:00,77.0,71.0,29.77,South,179,0.0,3.0,82,0.00,,,0.00,,2013-08-21 04:44:00,
2013-08-20 23:54:00,77.0,71.0,29.77,ESE,117,0.0,3.0,82,0.00,,,0.00,,2013-08-21 04:54:00,